This is the latest recevied weather packets stored in our database for station/object WA9AFM. If no packets are shown the sender has not sent any weather packets the latest 10 day(s).
| Time | Temp. | Humidity | Pressure | Rain* | Wind** | Luminosity | Snow |
|---|---|---|---|---|---|---|---|
| 1787563105 | 27.78° C | 63% | 1004.9 hPa | 0 mm | - | - | - |
| 1787562204 | 28.33° C | 63% | 1005 hPa | 0 mm | - | - | - |
| 1787561305 | 28.33° C | 62% | 1005.1 hPa | 0 mm | - | - | - |
| 1787560405 | 28.33° C | 62% | 1005.2 hPa | 0 mm | - | - | - |
| 1787559506 | 28.33° C | 62% | 1005.2 hPa | 0 mm | - | - | - |
| 1787558605 | 28.33° C | 61% | 1005.4 hPa | 0 mm | - | - | - |
| 1787557704 | 28.89° C | 60% | 1005.2 hPa | 0 mm | - | - | - |
| 1787556806 | 28.89° C | 60% | 1005.3 hPa | 0 mm | - | - | - |
| 1787555905 | 28.89° C | 59% | 1005.3 hPa | 0 mm | - | - | - |
| 1787555004 | 29.44° C | 59% | 1005.5 hPa | 0 mm | - | - | - |
| 1787554106 | 29.44° C | 58% | 1005.6 hPa | 0 mm | - | - | - |
| 1787553205 | 29.44° C | 58% | 1006.1 hPa | 0 mm | - | - | - |
| 1787552306 | 29.44° C | 57% | 1005.9 hPa | 0 mm | - | - | - |
| 1787551404 | 29.44° C | 58% | 1005.9 hPa | 0 mm | - | - | - |
| 1787550506 | 29.44° C | 58% | 1006 hPa | 0 mm | - | - | - |
| 1787549605 | 29.44° C | 58% | 1006.2 hPa | 0 mm | - | - | - |
| 1787548704 | 29.44° C | 58% | 1006.2 hPa | 0 mm | - | - | - |
| 1787547805 | 29.44° C | 58% | 1006.3 hPa | 0 mm | - | - | - |
| 1787546905 | 30° C | 58% | 1006.3 hPa | 0 mm | - | - | - |
| 1787546004 | 30° C | 59% | 1006.3 hPa | 0 mm | - | - | - |
| 1787545105 | 29.44° C | 60% | 1006.4 hPa | 0 mm | - | - | - |
| 1787544204 | 29.44° C | 60% | 1006.5 hPa | 0 mm | - | - | - |
| 1787543306 | 30° C | 59% | 1006.9 hPa | 0 mm | - | - | - |
| 1787542405 | 30.56° C | 58% | 1007 hPa | 0 mm | - | - | - |
| 1787541506 | 30.56° C | 58% | 1007 hPa | 0 mm | - | - | - |
* Rain latest hour (hover to see other rain measurements)
** Current wind speed in m/s (hover to see current wind gust speed)